Weather History for Salem, IL

Change the Weather History Date:

Monday, January 28, 2013

  Actual Average Record
Temperature  
Mean Temperature 55 °F -  
Max Temperature 61 °F 39 °F 70 °F (1970)
Min Temperature 49 °F 20 °F -10 °F (1961)
Degree Days  
Heating Degree Days 10    
Growing Degree Days 5 (Base 50)    
Moisture  
Dew Point 57 °F    
Average Humidity 98    
Maximum Humidity 100    
Minimum Humidity 91    
Precipitation  
Precipitation 0.10 in - - ()
Sea Level Pressure  
Sea Level Pressure 29.99 in    
Wind  
Wind Speed 12 mph (South)    
Max Wind Speed 20 mph    
Max Gust Speed 25 mph    
Visibility 7 miles    
Events Rain , Thunderstorm    
Averages and records for this station are not official NWS values.
T = Trace of Precipitation, MM = Missing Value Source: NWS Daily Summary

Daily Weather History Graph

Daily Weather History Graph

Search for Another Location

Airport:

Trip Planner

Search our weather history database for the weather conditions in past years. The results will help you decide how hot, cold, wet, or windy it might be!

Date:

Astronomy

Jan. 28, 2013 Rise Set
Actual Time 7:04 AM CST 5:13 PM CST
Civil Twilight 6:36 AM CST 5:41 PM CST
Nautical Twilight 6:04 AM CST 6:13 PM CST
Astronomical Twilight 5:33 AM CST 6:45 PM CST
Moon 7:06 PM CST (1/28) 7:31 AM CST (1/28)
Length of Visible Light 11h 05m
Length of Day
10h 08m
Full, 98% of the Moon is Illuminated
Jan 28
Full
Feb 3
Last Quarter
Feb 10
New
Feb 17
First Quarter
Feb 25
Full

Hourly Weather History & Observations

Time (CST) Temp. Dew Point Humidity Pressure Visibility Wind Dir Wind Speed Gust Speed Precip Events Conditions
12:15 AM 49.8 °F 48.0 °F 94% 30.02 in 10.0 mi South 12.7 mph 18.4 mph N/A   Overcast
12:35 AM 50.4 °F 48.4 °F 93% 30.02 in 10.0 mi South 12.7 mph 17.3 mph N/A   Overcast
12:55 AM 50.5 °F 48.4 °F 92% 30.03 in 10.0 mi South 10.4 mph - N/A   Overcast
1:15 AM 50.7 °F 48.6 °F 92% 30.03 in 10.0 mi South 12.7 mph - N/A   Overcast
1:35 AM 50.4 °F 48.4 °F 93% 30.03 in 10.0 mi South 11.5 mph - N/A   Overcast
1:55 AM 50.9 °F 48.4 °F 91% 30.02 in 10.0 mi South 11.5 mph 20.7 mph N/A   Overcast
2:15 AM 50.9 °F 48.7 °F 92% 30.01 in 10.0 mi South 11.5 mph 18.4 mph N/A   Overcast
2:35 AM 51.1 °F 49.1 °F 93% 30.00 in 10.0 mi South 13.8 mph - N/A   Overcast
2:55 AM 51.8 °F 49.5 °F 92% 30.00 in 10.0 mi South 12.7 mph 19.6 mph N/A   Overcast
3:15 AM 52.0 °F 50.0 °F 93% 29.99 in 7.0 mi South 13.8 mph 18.4 mph N/A Rain Rain
3:35 AM 52.7 °F 50.2 °F 91% 29.99 in 10.0 mi South 15.0 mph 19.6 mph N/A   Overcast
3:55 AM 52.3 °F 50.4 °F 93% 30.00 in 10.0 mi SW 8.1 mph 19.6 mph N/A   Overcast
4:15 AM 52.0 °F 50.5 °F 95% 30.00 in 7.0 mi SSW 10.4 mph - N/A   Overcast
4:35 AM 51.6 °F 50.5 °F 96% 30.00 in 7.0 mi South 9.2 mph - N/A   Overcast
4:55 AM 52.2 °F 51.4 °F 97% 30.00 in 7.0 mi South 9.2 mph - N/A   Overcast
5:15 AM 52.9 °F 51.8 °F 96% 29.99 in 7.0 mi South 10.4 mph - N/A   Overcast
5:35 AM 54.5 °F 53.1 °F 95% 29.99 in 10.0 mi SSW 11.5 mph - N/A   Overcast
5:55 AM 55.4 °F 53.6 °F 94% 30.00 in 10.0 mi SSW 15.0 mph 20.7 mph N/A   Overcast
6:15 AM 56.3 °F 54.0 °F 92% 30.00 in 10.0 mi SSW 17.3 mph 25.3 mph N/A   Overcast
6:35 AM 56.3 °F 54.3 °F 93% 29.99 in 10.0 mi South 17.3 mph 24.2 mph N/A   Overcast
6:55 AM 56.3 °F 54.3 °F 93% 30.00 in 10.0 mi South 15.0 mph - N/A   Overcast
7:15 AM 56.3 °F 54.7 °F 94% 30.00 in 10.0 mi South 15.0 mph 23.0 mph N/A   Overcast
7:35 AM 56.3 °F 54.9 °F 95% 30.00 in 7.0 mi South 13.8 mph 19.6 mph N/A   Overcast
7:55 AM 56.3 °F 55.0 °F 96% 30.00 in 7.0 mi South 15.0 mph 21.9 mph N/A   Overcast
8:15 AM 56.5 °F 55.4 °F 96% 30.01 in 7.0 mi SSW 19.6 mph 23.0 mph N/A   Overcast
8:35 AM 56.7 °F 56.3 °F 99% 30.01 in 4.0 mi SSW 13.8 mph 18.4 mph 0.04 in Rain , Thunderstorm Heavy Thunderstorms and Rain
8:55 AM 56.5 °F 56.5 °F 100% 30.02 in 3.0 mi South 13.8 mph 21.9 mph 0.07 in Rain Light Rain
9:15 AM 56.8 °F 56.8 °F 100% 30.02 in 5.0 mi SSW 9.2 mph - N/A Rain Rain
9:35 AM 56.3 °F 56.3 °F 100% 30.02 in 3.0 mi SSW 10.4 mph 16.1 mph 0.02 in Rain Heavy Rain
9:55 AM 56.3 °F 56.3 °F 100% 30.03 in 4.0 mi South 12.7 mph - 0.03 in   Overcast
10:15 AM 56.5 °F 56.5 °F 100% 30.03 in 4.0 mi South 11.5 mph - N/A   Overcast
10:35 AM 57.4 °F 57.4 °F 100% 30.03 in 4.0 mi South 13.8 mph 19.6 mph N/A   Overcast
10:55 AM 57.7 °F 57.7 °F 100% 30.03 in 5.0 mi South 13.8 mph 20.7 mph N/A   Overcast
11:15 AM 57.7 °F 57.7 °F 100% 30.02 in 5.0 mi South 15.0 mph 18.4 mph N/A   Overcast
11:35 AM 58.1 °F 58.1 °F 100% 30.02 in 5.0 mi South 12.7 mph - N/A   Overcast
11:55 AM 58.1 °F 58.1 °F 100% 30.01 in 5.0 mi South 13.8 mph - N/A   Overcast
12:15 PM 58.1 °F 58.1 °F 100% 30.00 in 5.0 mi South 11.5 mph - N/A   Overcast
12:35 PM 58.3 °F 58.3 °F 100% 29.99 in 5.0 mi South 10.4 mph 17.3 mph N/A   Overcast
12:55 PM 58.1 °F 58.1 °F 100% 29.98 in 5.0 mi South 12.7 mph 16.1 mph N/A Rain Light Rain
1:15 PM 58.5 °F 58.5 °F 100% 29.97 in 5.0 mi South 12.7 mph 18.4 mph N/A Rain Light Rain
1:35 PM 58.5 °F 58.5 °F 100% 29.96 in 4.0 mi South 9.2 mph - N/A Rain Light Rain
1:55 PM 59.0 °F 59.0 °F 100% 29.96 in 5.0 mi South 11.5 mph - N/A   Overcast
2:15 PM 59.4 °F 59.4 °F 100% 29.96 in 5.0 mi South 13.8 mph - N/A   Overcast
2:35 PM 59.9 °F 59.9 °F 100% 29.96 in 4.0 mi South 18.4 mph 23.0 mph N/A   Overcast
2:55 PM 59.9 °F 59.9 °F 100% 29.96 in 4.0 mi South 11.5 mph 20.7 mph N/A   Overcast
3:15 PM 60.1 °F 60.1 °F 100% 29.96 in 5.0 mi South 11.5 mph - N/A   Overcast
3:35 PM 60.1 °F 60.1 °F 100% 29.96 in 4.0 mi South 9.2 mph - N/A   Overcast
3:55 PM 60.4 °F 60.4 °F 100% 29.96 in 5.0 mi South 8.1 mph - N/A   Overcast
4:15 PM 60.8 °F 60.8 °F 100% 29.96 in 5.0 mi South 10.4 mph 17.3 mph N/A   Overcast
4:35 PM 60.8 °F 60.8 °F 100% 29.96 in 5.0 mi South 9.2 mph 16.1 mph N/A   Overcast
4:55 PM 60.4 °F 60.4 °F 100% 29.96 in 4.0 mi South 10.4 mph - N/A   Overcast
5:15 PM 60.4 °F 60.4 °F 100% 29.95 in 4.0 mi South 11.5 mph 19.6 mph N/A   Overcast
5:35 PM 60.8 °F 60.8 °F 100% 29.96 in 5.0 mi South 11.5 mph 20.7 mph N/A   Overcast
5:55 PM 60.4 °F 60.4 °F 100% 29.95 in 5.0 mi South 13.8 mph 24.2 mph N/A   Overcast
6:15 PM 60.3 °F 60.3 °F 100% 29.96 in 5.0 mi South 11.5 mph 18.4 mph N/A   Overcast
6:35 PM 60.8 °F 60.8 °F 100% 29.96 in 5.0 mi South 12.7 mph 19.6 mph N/A   Overcast
6:55 PM 60.8 °F 60.8 °F 100% 29.96 in 5.0 mi South 11.5 mph - N/A   Overcast
7:15 PM 60.8 °F 60.8 °F 100% 29.96 in 5.0 mi South 12.7 mph 17.3 mph N/A   Overcast
7:35 PM 61.0 °F 61.0 °F 100% 29.96 in 5.0 mi South 10.4 mph - N/A   Overcast
7:55 PM 61.0 °F 61.0 °F 100% 29.96 in 5.0 mi South 11.5 mph - N/A   Overcast
8:15 PM 61.2 °F 61.2 °F 100% 29.96 in 7.0 mi South 12.7 mph 17.3 mph N/A   Overcast
8:35 PM 61.5 °F 61.2 °F 99% 29.96 in 7.0 mi South 12.7 mph - N/A   Overcast
8:55 PM 61.7 °F 61.3 °F 99% 29.96 in 7.0 mi South 11.5 mph - N/A   Overcast
9:15 PM 61.3 °F 61.2 °F 99% 29.96 in 7.0 mi South 10.4 mph - N/A   Overcast
9:35 PM 61.0 °F 61.0 °F 100% 29.96 in 7.0 mi South 9.2 mph 16.1 mph N/A   Mostly Cloudy
9:55 PM 60.8 °F 60.8 °F 100% 29.96 in 7.0 mi South 10.4 mph - N/A   Scattered Clouds
10:15 PM 60.4 °F 60.4 °F 100% 29.96 in 7.0 mi South 9.2 mph - N/A   Scattered Clouds
10:35 PM 60.4 °F 60.4 °F 100% 29.96 in 7.0 mi South 8.1 mph - N/A   Clear
10:55 PM 60.6 °F 60.3 °F 99% 29.95 in 7.0 mi South 10.4 mph - N/A   Clear
11:15 PM 60.8 °F 59.9 °F 97% 29.96 in 10.0 mi South 9.2 mph - N/A   Clear
11:35 PM 60.8 °F 59.0 °F 94% 29.95 in 10.0 mi South 10.4 mph - N/A   Clear
11:55 PM 61.0 °F 59.9 °F 96% 29.94 in 10.0 mi South 13.8 mph 20.7 mph N/A   Clear